1st Responders/1st Detectors/Storm Spotters Weather Summary for Nelson County, KY

Forecast Maps


Reg. NEXRAD Animation


National Fire Danger: Day 1 & 2 Map

Current NWS Watch/Warnings

SPC Convective Day 1 Outlook


Day 2 Outlook

(Click images to enlarge|Page will refresh every 5 minutes)
UK Ag. Weather Center Desktop Severe Weather Service[HERE]
Nelson County, KY Hazardous Weather Outlook Webcast
(9 AM to 9 PM Mon-Fri)
[Fast]
[Dial-up]


UKAWC 1st Detectors/1st Responders Precision Weather Forecast For NELSON County, Kentucky
(based on the NWS County Digital Forecast)

ISSUED AT 07:00 UTC ON MONDAY OCT 18 2021
DAY MONDAY
EDT 3HR 4A 5A 6A 7A 8A 9A 10A 11A NOON 1P 2P 3P 4P 5P 6P 7P
MAX/MIN -- -- -- -- 40° -- -- -- -- -- -- -- -- -- -- 68°
TEMP 45° 43° 43° 43° 41° 45° 50° 56° 61° 63° 65° 67° 67° 67° 65° 61°
SKY COVER 0% 0% 0% 0% 0% 0% 0% 0% 0% 0% 0% 0% 0% 0% 0% 0%
Clouds
DEW PT 41° 41° 40° 40° 40° 43° 45° 47° 49° 49° 47° 47° 47° 47° 49° 49°
RH 89% 93% 92% 92% 95% 88% 82% 71% 67% 57% 52% 48% 48% 49% 56% 62%
POP 12HR -- -- -- -- 0% -- -- -- -- -- -- -- -- -- -- --
RAIN/SNOW (liq.equ) -- -- -- -- 0.00in -- -- -- -- -- 0.00in -- -- -- -- --
SNOWFALL -- -- -- -- 0in -- -- -- -- -- 0in -- -- -- -- --
WIND SPEED(MPH) 0 0 0 0 0 0 0 1 2 2 2 5 5 5 1 0
WIND Gust(MPH) 0 0 0 1 0 0 1 2 6 7 8 7 7 7 5 0
WIND DIR SW SW S S S S SW SW W W W W W W W SW
DEW Mod Dew Mod Dew Mod Dew Mod Dew Mod Dew Mod Dew Mod Dew Lgt Dew -- -- -- -- -- -- -- --
HeatIndex 45 43 43 43 41 45 50 56 61 63 65 67 67 67 65 61
Rain Showers -- -- -- -- -- -- -- -- -- -- -- -- -- -- -- --
WIND CHILL -- -- -- -- -- -- -- -- -- -- -- -- -- -- -- --
SPRAY COND
DRY COND
LIVESTOCK COLDSTRESS
LIVESTOCK HEATSTRESS 45.83 43.61 43.70 43.70 41.49 45.91 50.87 56.45 60.60 62.01 63.36 64.65 64.65 64.70 63.50 60.54



DAY TUESDAY WEDNESDAY THURSDAY FRIDAY SATURDAY SUNDAY
EDT 6HR 8P 9P 10P 11P MIDN 1A 2A 3A 4A 5A 6A 7A 8A 9A 10A 11A NOON 1P 2P 3P 5P 8P 11P 2A 5A 8A 11A 2P 5P 8P 2A 8A 2P 8P 2A 8A 2P 8P 2A 8A 2P 8P 2A 8A 2P 8P
MAX/MIN -- -- -- -- -- -- -- -- -- -- -- -- 43° -- -- -- -- -- -- -- 70° -- -- -- -- 45° -- -- 72° -- -- 56° 70° -- -- 49° 61° -- -- 43° 61° -- -- 41° 65° --
TEMP 56° 54° 52° 50° 49° 47° 47° 45° 45° 45° 43° 43° 43° 47° 52° 58° 63° 65° 68° 70° 67° 58° 52° 49° 47° 45° 61° 70° 70° 61° 58° 58° 67° 58° 52° 49° 59° 54° 47° 43° 59° 52° 45° 43° 63° 56°
SKY COVER 0% 1% 2% 2% 0% 1% 1% 1% 1% 1% 2% 4% 6% 6% 9% 8% 13% 18% 20% 21% 26% 45% 30% 8% 2% 3% 2% 5% 5% 13% 38% 80% 43% 31% 46% 66% 67% 64% 39% 38% 25% 28% 29% 39% 36% 34%
Clouds
DEW PT 47° 47° 47° 47° 47° 45° 45° 43° 43° 43° 43° 41° 41° 45° 47° 49° 50° 49° 49° 49° 50° 49° 49° 47° 45° 45° 52° 54° 54° 54° 54° 56° 58° 52° 49° 47° 50° 49° 45° 43° 45° 45° 43° 41° 49° 49°
RH 71% 80% 82% 85% 93% 92% 92% 93% 92% 92% 96% 92% 96% 88% 82% 74% 65% 56% 50% 48% 54% 72% 85% 93% 95% 100% 74% 54% 57% 77% 89% 92% 75% 80% 92% 96% 71% 79% 96% 96% 58% 76% 89% 92% 60% 77%
POP 12HR 0% -- -- -- -- -- -- -- -- -- -- -- 0% -- -- -- -- -- -- -- -- 0% -- -- -- 0% -- -- -- 0% -- 40% -- 35% -- 3% -- 13% -- 6% -- 5% -- 7% -- 13%
RAIN/SNOW (liq.equ) 0.00in -- -- -- -- -- 0.00in -- -- -- -- -- 0.00in -- -- -- -- -- 0.00in -- -- 0.00in -- 0.00in -- 0.00in -- 0.00in -- 0.00in -- -- -- -- -- -- -- -- -- -- -- -- -- -- -- --
SNOWFALL 0in -- -- -- -- -- 0in -- -- -- -- -- 0in -- -- -- -- -- 0in -- -- 0in -- 0in -- 0in -- 0in -- 0in -- -- -- -- -- -- -- -- -- -- -- -- -- -- -- --
WIND SPEED(MPH) 0 0 0 0 0 0 0 0 0 0 0 0 0 0 1 1 2 2 5 6 6 1 1 1 1 1 6 7 7 6 6 8 13 6 1 1 5 1 1 1 5 1 1 2 7 5
WIND DIR S S S S S S S S S S S S S S S S S S S S S S S S S S S SW S S S SW W W W NW NW NW NW N NW NE E SE S S
HeatIndex 56 54 52 50 49 47 47 45 45 45 43 43 43 47 52 58 63 65 68 70 67 58 52 49 47 45 61 70 70 61 58 58 67 58 52 49 59 54 47 43 59 52 45 42 63 56
Rain Showers -- -- -- -- -- -- -- -- -- -- -- -- -- -- -- -- -- -- -- -- -- -- -- -- -- -- -- -- -- -- Chance Chance Slight Chance -- -- -- -- -- -- -- -- -- -- -- -- Slight Chance
WIND CHILL -- -- -- -- -- -- -- -- -- -- -- -- -- -- -- -- -- -- -- -- -- -- -- -- -- -- -- -- -- -- -- -- -- -- -- -- -- -- -- -- -- -- -- -- -- --
SPRAY COND
DRY COND
LIVESTOCK COLDSTRESS
LIVESTOCK HEATSTRESS 56.45 54.53 52.67 50.73 49.38 47.52 47.52 45.53 45.61 45.61 43.35 43.70 43.35 47.78 52.67 58.11 62.19 63.50 65.47 66.80 64.93 58.12 52.56 49.38 47.32 45.00 60.69 67.17 67.35 60.72 58.05 58.04 65.87 58.09 52.30 49.22 58.97 54.55 47.26 43.35 58.95 52.90 45.83 43.70 62.08 56.35

Click on individual weather variable above in left-hand column (ie., TEMP, RH, QPF 12HR) to view state forecast maps






NWS 48 Hr. Forecast Maps,

Regional Hourly Observations For NELSON County, Kentucky
Issued at 300 AM EDT MON OCT 18 2021
NORTH CENTRAL KENTUCKY
  
CITY           SKY/WX    TMP DP  RH WIND       PRES   REMARKS
LOUISVILLE/SDF CLEAR     53  44  71 CALM      30.18S                  
LOUISVILLE/LOU CLEAR     47  44  90 CALM      30.18S                  
FORT KNOX      CLEAR     44  43  99 CALM      30.18S                  


Current NOWCAST not available:
Nowcasts are not issued routinely during fair weather. Only when
precipitation or other significant weather is occuring in this county will these
forecasts be issued. Currently, there is no short term forecast in effect.


Fire Weather Forecast For NELSON County, KY
Provided by the National Weather Service:

Issued at: Mon Oct 18 03:05:01 EDT 2021

321 PM EDT Sun Oct 17 2021

                      Tonight      Mon          Mon Night    Tue          

CLOUD COVER           Clear        Clear        Clear        Mclear       
PRECIP TYPE           None         None         None         None         
CHANCE PRECIP (%)     0            0            0            0            
TEMP (24H TREND)      39 (+1)      70 (+4)      42           71           
RH % (24H TREND)      95 (-2)      44 (0)       94           44           
20FTWND-VAL/AM(MPH)                Lgt/Var                   Lgt/Var      
20FTWND-RDG/PM(MPH)   Lgt/Var      Lgt/Var      Lgt/Var      Lgt/Var      
PRECIP AMOUNT         0.00         0.00         0.00         0.00         
MIXING HGT(FT-AGL/MSL)             4184                      3688         
TRANSPORT WND (MPH)                W 12                      SW 12        
VENT RATE (KT-FT)                  43747                     42382        
DISPERSION                         Fair                      Fair         
DSI                   SLGT UNSTBL  SLGT UNSTBL  SLGT UNSTBL  SLGT UNSTBL  
LAL                   1            1            1            1            
HAINES INDEX          4            4            4            4            
ADI EARLY             5 VERY POOR  20 GEN POOR  3 VERY POOR  6 VERY POOR  
ADI LATE              3 VERY POOR  43 GEN GOOD  2 VERY POOR  39 FAIR      
MAX LVORI EARLY       5            6            5            6            
MAX LVORI LATE        6            2            6            2            

REMARKS...ADI IS ATMOSPHERIC DISPERSION INDEX BY LAVDAS.        
LVORI IS LOW VISIBILITY OCCURRENCE RISK INDEX.

.WEDNESDAY...Mostly clear. Lows in the mid 40s. Highs in the
lower 70s. Light winds. 
.THURSDAY...Partly cloudy. A 50 percent chance of rain showers.
Lows in the upper 50s. Highs in the upper 60s. West winds 5 to
10 mph. 
.FRIDAY...Mostly cloudy. Lows in the upper 40s. Highs in the
lower 60s. Northwest winds up to 10 mph. 
.SATURDAY...Partly cloudy. Lows in the lower 40s. Highs in the
lower 60s. Northwest winds up to 5 mph. 
.SUNDAY...Partly cloudy. Lows in the lower 40s. Highs in the mid
60s. Southeast winds up to 10 mph. 

SPC's Fire Weather Web Tool (Excellent!), SPC's Fire Weather Outlooks, NWS Fire Weather WEB, Fire Danger Class Map,
Keetch-Byram Drought Index, ROMAN Web, Haines Index ,
WFAS's 10-hr Dead Fuel Moist., WFAS's 100-hr Dead Fuel Moist., Probablity of Ignition, Visual blackness Map, Palmer Drought Index, HPC's Rainfall Forecast Maps


Hazardous Weather Outlook For NELSON County, Kentucky
308 PM EDT Sun Oct 17 2021 /208 PM CDT Sun Oct 17 2021/

 DAY ONE  Tonight.

No hazardous weather is expected at this time.

 DAYS TWO THROUGH SEVEN  Monday through Saturday.

No hazardous weather is expected at this time.

 SPOTTER INFORMATION STATEMENT  

Spotter activation is not anticipated.

Latest NELSON County, Kentucky Watches, Warnings and Advisories.
Additional Drought Info.: UKAWC Drought Page, Kentucky Drought Watch


7-Day Forecast For NELSON County, KY

TONIGHT
Clear. Lows in the lower 40s. Southwest winds up to 5 mph.

MONDAY
Sunny. Highs in the upper 60s. West winds up to 5 mph.

MONDAY NIGHT
Clear. Lows in the lower 40s. South winds up to 5 mph.

TUESDAY
Mostly sunny. Highs around 70. South winds up to 5 mph.

TUESDAY NIGHT
Partly cloudy. Lows in the mid 40s. South winds up to 5 mph.

WEDNESDAY
Sunny. Highs in the lower 70s.

WEDNESDAY NIGHT
Mostly clear with a 40 percent chance of showers. Lows in the mid 50s.

THURSDAY
Partly cloudy with a 40 percent chance of showers. Highs in the upper 60s.

THURSDAY NIGHT
Partly cloudy. Lows in the upper 40s.

FRIDAY
Partly cloudy. Highs in the lower 60s.

FRIDAY NIGHT
Partly cloudy. Lows in the lower 40s.

SATURDAY
Mostly sunny. Highs in the lower 60s.

SATURDAY NIGHT
Partly cloudy. Lows in the lower 40s.

SUNDAY
Partly cloudy. Highs in the mid 60s.

Ag Weather Center, Department of Biosystems & Agricultural Engineering, University of Kentucky